This demonstration page uses our WeatherBlox Daily Observations layout. Learn more.

Left ArrowRight Arrow

Hourly Observations for June 28, 2020

Temp ( °F °C ) Dew Point ( °F °C ) Humidity (%) Winds ( mph kmh ) Pressure ( in mb ) Visibility ( mi km ) Precip ( " mm )
6:30 am 06:30 Cloudy 68 20 66 19 94 94 S 7 11 29.82 1010 7 11 N/A
6:50 am 06:50 Cloudy 68 20 66 19 94 94 S 9 15 29.82 1010 7 11 N/A
7:48 am 07:48 Cloudy 68 20 66 19 94 94 SE 6 9 29.81 1010 7 11 N/A
8:03 am 08:03 Mostly Cloudy 68 20 68 20 100 100 SE 5 7 29.81 1010 7 11 N/A
8:48 am 08:48 Cloudy 72 22 68 20 88 88 SE 5 7 29.84 1010 7 11 N/A
9:02 am 09:02 Cloudy 72 22 68 20 88 88 SSE 3 6 29.85 1011 7 11 N/A
9:46 am 09:46 Cloudy 72 22 68 20 88 88 SE 5 7 29.86 1011 7 11 N/A
10:17 am 10:17 Cloudy 72 22 68 20 88 88 SSE 5 7 29.85 1011 7 11 N/A
10:47 am 10:47 Cloudy 72 22 68 20 88 88 SSE 5 7 29.84 1010 7 11 N/A
11:47 am 11:47 Cloudy 73 23 68 20 83 83 S 10 17 29.84 1010 10 16 N/A
12:50 pm 12:50 Cloudy 73 23 68 20 83 83 SSW 10 17 29.85 1011 10 16 N/A
1:46 pm 13:46 Cloudy 73 23 68 20 83 83 SSW 10 17 29.85 1011 10 16 N/A
2:50 pm 14:50 Cloudy with Light Rain 72 22 70 21 94 94 Calm 29.84 1010 4 6 N/A
3:35 pm 15:35 Cloudy with Light Rain 73 23 54 12 50 50 Calm 29.84 1010 7 11 N/A
3:45 pm 15:45 Cloudy with Light Rain 73 23 70 21 89 89 Calm 29.84 1010 5 8 N/A
4:20 pm 16:20 Cloudy 75 24 70 21 83 83 Calm 29.83 1010 10 16 N/A
4:45 pm 16:45 Mostly Cloudy 77 25 70 21 79 79 Calm 29.79 1009 10 16 N/A
5:45 pm 17:45 Mostly Cloudy 77 25 72 22 83 83 SW 6 9 29.81 1010 10 16 N/A
6:45 pm 18:45 Cloudy 81 27 72 22 74 74 Calm 29.81 1009 10 16 N/A
7:45 pm 19:45 Mostly Cloudy 79 26 72 22 79 79 SW 8 13 29.82 1010 10 16 N/A
8:45 pm 20:45 Mostly Sunny 77 25 72 22 83 83 Calm 29.81 1010 10 16 N/A
9:45 pm 21:45 Partly Cloudy 75 24 72 22 89 89 Calm 29.83 1010 10 16 N/A

Powered by AerisWeather